timestamp,wind_dir_avg,wind_spd_max_dir,wind_spd_avg,wind_spd_gust,battery_voltage,lat,long
2018-10-26 00:00:00+00:00,229.0,234.0,4.82,5.45,,47.59359,-54.27349
2018-10-26 00:10:00+00:00,230.0,229.0,5.37,6.24,,47.59359,-54.27349
2018-10-26 00:20:00+00:00,224.0,225.0,4.78,5.39,,47.59359,-54.27349
2018-10-26 00:30:00+00:00,230.0,232.0,4.28,4.8,,47.59359,-54.27349
2018-10-26 00:40:00+00:00,239.0,242.0,4.46,4.91,,47.59359,-54.27349
2018-10-26 00:50:00+00:00,239.0,243.0,5.85,6.85,,47.59359,-54.27349
2018-10-26 01:00:00+00:00,230.0,233.0,6.41,7.36,,47.59359,-54.27349
2018-10-26 01:10:00+00:00,229.0,230.0,6.54,7.2,,47.59359,-54.27349
2018-10-26 01:20:00+00:00,222.0,221.0,6.8,7.97,,47.59359,-54.27349
2018-10-26 01:30:00+00:00,220.0,220.0,6.54,7.26,,47.59359,-54.27349
2018-10-26 01:40:00+00:00,221.0,224.0,5.52,5.98,,47.59359,-54.27349
2018-10-26 01:50:00+00:00,223.0,226.0,5.17,5.91,,47.59359,-54.27349
2018-10-26 02:00:00+00:00,204.0,201.0,3.83,4.51,,47.59359,-54.27349
2018-10-26 02:10:00+00:00,224.0,222.0,6.73,7.44,,47.59359,-54.27349
2018-10-26 02:20:00+00:00,211.0,205.0,4.92,5.38,,47.59359,-54.27349
2018-10-26 02:30:00+00:00,242.0,244.0,8.18,9.14,,47.59359,-54.27349
2018-10-26 02:40:00+00:00,216.0,218.0,6.42,6.93,,47.59359,-54.27349
2018-10-26 02:50:00+00:00,221.0,219.0,6.78,7.39,,47.59359,-54.27349
2018-10-26 03:00:00+00:00,215.0,212.0,5.7,6.82,,47.59359,-54.27349
2018-10-26 03:10:00+00:00,221.0,221.0,5.86,6.61,,47.59359,-54.27349
2018-10-26 03:20:00+00:00,221.0,225.0,6.52,6.92,,47.59359,-54.27349
2018-10-26 03:30:00+00:00,223.0,229.0,7.54,8.44,,47.59359,-54.27349
2018-10-26 03:40:00+00:00,216.0,218.0,8.52,9.45,,47.59359,-54.27349
2018-10-26 03:50:00+00:00,218.0,225.0,7.93,8.79,,47.59359,-54.27349
2018-10-26 04:00:00+00:00,226.0,221.0,7.95,9.4,,47.59359,-54.27349
2018-10-26 04:10:00+00:00,226.0,221.0,8.49,9.66,,47.59359,-54.27349
2018-10-26 04:20:00+00:00,227.0,230.0,9.33,10.65,,47.59359,-54.27349
2018-10-26 04:30:00+00:00,241.0,242.0,7.51,9.61,,47.59359,-54.27349
2018-10-26 04:40:00+00:00,240.0,241.0,9.06,10.55,,47.59359,-54.27349
2018-10-26 04:50:00+00:00,238.0,230.0,8.68,10.03,,47.59359,-54.27349
2018-10-26 05:00:00+00:00,236.0,236.0,7.93,8.94,,47.59359,-54.27349
2018-10-26 05:10:00+00:00,241.0,251.0,7.95,10.22,,47.59359,-54.27349
2018-10-26 05:20:00+00:00,239.0,245.0,8.81,10.07,,47.59359,-54.27349
2018-10-26 05:30:00+00:00,247.0,247.0,10.77,12.13,,47.59359,-54.27349
2018-10-26 05:40:00+00:00,246.0,247.0,9.65,11.4,,47.59359,-54.27349
2018-10-26 05:50:00+00:00,252.0,253.0,10.23,11.86,,47.59359,-54.27349
2018-10-26 06:00:00+00:00,249.0,253.0,9.31,10.96,,47.59359,-54.27349
2018-10-26 06:10:00+00:00,243.0,242.0,9.66,11.36,,47.59359,-54.27349
2018-10-26 06:20:00+00:00,241.0,241.0,9.51,11.13,,47.59359,-54.27349
2018-10-26 06:30:00+00:00,245.0,250.0,9.65,11.1,,47.59359,-54.27349
2018-10-26 06:40:00+00:00,242.0,240.0,9.44,11.5,,47.59359,-54.27349
2018-10-26 06:50:00+00:00,247.0,253.0,13.56,17.93,,47.59359,-54.27349
2018-10-26 07:00:00+00:00,268.0,268.0,13.06,14.37,,47.59359,-54.27349
2018-10-26 07:10:00+00:00,241.0,239.0,14.07,16.06,,47.59359,-54.27349
2018-10-26 07:20:00+00:00,258.0,246.0,11.55,13.79,,47.59359,-54.27349
2018-10-26 07:30:00+00:00,258.0,259.0,12.98,15.43,,47.59359,-54.27349
2018-10-26 07:40:00+00:00,255.0,256.0,11.79,14.15,,47.59359,-54.27349
2018-10-26 07:50:00+00:00,260.0,264.0,12.11,14.52,,47.59359,-54.27349
2018-10-26 08:00:00+00:00,255.0,257.0,11.6,13.06,,47.59359,-54.27349
2018-10-26 08:10:00+00:00,258.0,263.0,12.74,14.26,,47.59359,-54.27349
2018-10-26 08:20:00+00:00,261.0,261.0,13.11,15.49,,47.59359,-54.27349
2018-10-26 08:30:00+00:00,255.0,251.0,10.59,12.58,,47.59359,-54.27349
2018-10-26 08:40:00+00:00,252.0,260.0,11.86,13.59,,47.59359,-54.27349
2018-10-26 08:50:00+00:00,256.0,260.0,12.05,14.09,,47.59359,-54.27349
2018-10-26 09:00:00+00:00,246.0,251.0,10.92,12.21,,47.59359,-54.27349
2018-10-26 09:10:00+00:00,246.0,252.0,12.14,14.95,,47.59359,-54.27349
2018-10-26 09:20:00+00:00,249.0,247.0,12.44,15.05,,47.59359,-54.27349
2018-10-26 09:30:00+00:00,250.0,253.0,13.37,15.85,,47.59359,-54.27349
2018-10-26 09:40:00+00:00,242.0,243.0,11.86,13.85,,47.59359,-54.27349
2018-10-26 09:50:00+00:00,247.0,249.0,11.76,13.93,,47.59359,-54.27349
2018-10-26 10:00:00+00:00,243.0,249.0,10.71,12.87,,47.59359,-54.27349
2018-10-26 10:10:00+00:00,249.0,240.0,13.29,15.05,,47.59359,-54.27349
2018-10-26 10:20:00+00:00,246.0,243.0,13.42,16.58,,47.59359,-54.27349
2018-10-26 10:30:00+00:00,250.0,248.0,13.19,15.6,,47.59359,-54.27349
2018-10-26 10:40:00+00:00,244.0,241.0,12.32,16.16,,47.59359,-54.27349
2018-10-26 10:50:00+00:00,241.0,238.0,12.69,14.47,,47.59359,-54.27349
2018-10-26 11:00:00+00:00,248.0,251.0,13.78,15.62,,47.59359,-54.27349
2018-10-26 11:10:00+00:00,244.0,244.0,13.26,16.41,,47.59359,-54.27349
2018-10-26 11:20:00+00:00,247.0,246.0,14.46,16.91,,47.59359,-54.27349
2018-10-26 11:30:00+00:00,246.0,250.0,13.14,16.04,,47.59359,-54.27349
2018-10-26 11:40:00+00:00,249.0,252.0,12.65,14.37,,47.59359,-54.27349
2018-10-26 11:50:00+00:00,245.0,245.0,14.3,16.42,,47.59359,-54.27349
2018-10-26 12:00:00+00:00,237.0,234.0,14.18,16.89,,47.59359,-54.27349
2018-10-26 12:10:00+00:00,243.0,243.0,12.81,15.82,,47.59359,-54.27349
2018-10-26 12:20:00+00:00,240.0,247.0,11.45,13.95,,47.59359,-54.27349
2018-10-26 12:30:00+00:00,242.0,246.0,12.75,15.62,,47.59359,-54.27349
2018-10-26 12:40:00+00:00,244.0,241.0,12.53,15.23,,47.59359,-54.27349
2018-10-26 12:50:00+00:00,254.0,248.0,14.02,16.61,,47.59359,-54.27349
2018-10-26 13:00:00+00:00,247.0,252.0,12.52,14.42,,47.59359,-54.27349
2018-10-26 13:10:00+00:00,245.0,245.0,13.96,17.4,,47.59359,-54.27349
2018-10-26 13:20:00+00:00,253.0,262.0,16.12,18.64,,47.59359,-54.27349
2018-10-26 13:30:00+00:00,245.0,247.0,15.01,17.3,,47.59359,-54.27349
2018-10-26 13:40:00+00:00,246.0,253.0,14.91,16.85,,47.59359,-54.27349
2018-10-26 13:50:00+00:00,245.0,243.0,14.6,17.14,,47.59359,-54.27349
2018-10-26 14:00:00+00:00,245.0,245.0,15.29,18.29,,47.59359,-54.27349
2018-10-26 14:10:00+00:00,240.0,246.0,14.58,16.74,,47.59359,-54.27349
2018-10-26 14:20:00+00:00,244.0,248.0,12.81,15.5,,47.59359,-54.27349
2018-10-26 14:30:00+00:00,247.0,246.0,12.74,16.87,,47.59359,-54.27349
2018-10-26 14:40:00+00:00,242.0,244.0,13.65,17.21,,47.59359,-54.27349
2018-10-26 14:50:00+00:00,241.0,233.0,13.34,16.69,,47.59359,-54.27349
2018-10-26 15:00:00+00:00,242.0,249.0,12.79,15.88,,47.59359,-54.27349
2018-10-26 15:10:00+00:00,237.0,233.0,15.84,18.27,,47.59359,-54.27349
2018-10-26 15:20:00+00:00,235.0,238.0,14.58,16.89,,47.59359,-54.27349
2018-10-26 15:30:00+00:00,234.0,233.0,13.53,15.22,,47.59359,-54.27349
2018-10-26 15:40:00+00:00,245.0,243.0,11.18,12.94,,47.59359,-54.27349
2018-10-26 15:50:00+00:00,256.0,254.0,14.49,16.41,,47.59359,-54.27349
2018-10-26 16:00:00+00:00,246.0,256.0,13.24,16.27,,47.59359,-54.27349
2018-10-26 16:10:00+00:00,248.0,257.0,13.26,15.78,,47.59359,-54.27349
2018-10-26 16:20:00+00:00,245.0,247.0,12.31,13.8,,47.59359,-54.27349
2018-10-26 16:30:00+00:00,241.0,240.0,10.64,13.58,,47.59359,-54.27349
2018-10-26 16:40:00+00:00,264.0,264.0,18.31,20.51,,47.59359,-54.27349
2018-10-26 16:50:00+00:00,249.0,261.0,11.72,14.47,,47.59359,-54.27349
2018-10-26 17:00:00+00:00,249.0,254.0,11.74,13.38,,47.59359,-54.27349
2018-10-26 17:10:00+00:00,252.0,260.0,13.82,16.63,,47.59359,-54.27349
2018-10-26 17:20:00+00:00,243.0,241.0,15.64,18.66,,47.59359,-54.27349
2018-10-26 17:30:00+00:00,239.0,244.0,12.21,14.86,,47.59359,-54.27349
2018-10-26 17:40:00+00:00,241.0,247.0,13.44,15.21,,47.59359,-54.27349
2018-10-26 17:50:00+00:00,239.0,232.0,12.75,14.87,,47.59359,-54.27349
2018-10-26 18:00:00+00:00,243.0,252.0,12.7,15.26,,47.59359,-54.27349
2018-10-26 18:10:00+00:00,241.0,234.0,12.53,15.1,,47.59359,-54.27349
2018-10-26 18:20:00+00:00,247.0,255.0,12.64,14.98,,47.59359,-54.27349
2018-10-26 18:30:00+00:00,244.0,241.0,13.43,15.48,,47.59359,-54.27349
2018-10-26 18:40:00+00:00,252.0,248.0,11.72,14.35,,47.59359,-54.27349
2018-10-26 18:50:00+00:00,251.0,255.0,12.97,15.63,,47.59359,-54.27349
2018-10-26 19:00:00+00:00,260.0,254.0,12.85,14.66,,47.59359,-54.27349
2018-10-26 19:10:00+00:00,250.0,251.0,13.06,14.97,,47.59359,-54.27349
2018-10-26 19:20:00+00:00,253.0,252.0,13.17,14.79,,47.59359,-54.27349
2018-10-26 19:30:00+00:00,265.0,268.0,12.02,14.85,,47.59359,-54.27349
2018-10-26 19:40:00+00:00,264.0,263.0,11.2,12.31,,47.59359,-54.27349
2018-10-26 19:50:00+00:00,257.0,263.0,9.63,11.4,,47.59359,-54.27349
2018-10-26 20:00:00+00:00,250.0,244.0,12.27,14.54,,47.59359,-54.27349
2018-10-26 20:10:00+00:00,246.0,250.0,10.52,12.41,,47.59359,-54.27349
2018-10-26 20:20:00+00:00,241.0,238.0,11.31,13.77,,47.59359,-54.27349
2018-10-26 20:30:00+00:00,245.0,250.0,10.78,13.37,,47.59359,-54.27349
2018-10-26 20:40:00+00:00,240.0,233.0,9.59,11.19,,47.59359,-54.27349
2018-10-26 20:50:00+00:00,260.0,257.0,11.13,12.7,,47.59359,-54.27349
2018-10-26 21:00:00+00:00,264.0,265.0,10.99,12.36,,47.59359,-54.27349
2018-10-26 21:10:00+00:00,259.0,259.0,10.99,12.62,,47.59359,-54.27349
2018-10-26 21:20:00+00:00,256.0,249.0,11.04,12.88,,47.59359,-54.27349
2018-10-26 21:30:00+00:00,255.0,259.0,13.17,14.48,,47.59359,-54.27349
2018-10-26 21:40:00+00:00,261.0,260.0,11.9,14.49,,47.59359,-54.27349
2018-10-26 21:50:00+00:00,254.0,252.0,11.91,13.44,,47.59359,-54.27349
2018-10-26 22:00:00+00:00,256.0,260.0,12.04,13.32,,47.59359,-54.27349
2018-10-26 22:10:00+00:00,256.0,254.0,13.14,14.47,,47.59359,-54.27349
2018-10-26 22:20:00+00:00,257.0,258.0,12.45,14.29,,47.59359,-54.27349
2018-10-26 22:30:00+00:00,253.0,254.0,14.19,16.44,,47.59359,-54.27349
2018-10-26 22:40:00+00:00,258.0,256.0,13.01,15.36,,47.59359,-54.27349
2018-10-26 22:50:00+00:00,253.0,257.0,13.84,15.35,,47.59359,-54.27349
2018-10-26 23:00:00+00:00,256.0,252.0,12.96,14.71,,47.59359,-54.27349
2018-10-26 23:10:00+00:00,252.0,249.0,13.34,15.93,,47.59359,-54.27349
2018-10-26 23:20:00+00:00,258.0,259.0,12.93,14.22,,47.59359,-54.27349
2018-10-26 23:30:00+00:00,253.0,254.0,13.66,15.54,,47.59359,-54.27349
2018-10-26 23:40:00+00:00,261.0,261.0,12.66,14.65,,47.59359,-54.27349
2018-10-26 23:50:00+00:00,258.0,251.0,11.78,13.62,,47.59359,-54.27349
